This is the latest recevied weather packets stored in our database for station/object HP1CDW-11. If no packets are shown the sender has not sent any weather packets the latest 10 day(s).
| Time | Temp. | Humidity | Pressure | Rain* | Wind** | Luminosity | Snow |
|---|---|---|---|---|---|---|---|
| 1778102230 | 32.78° C | 49% | 1008.2 hPa | - | - | - | - |
| 1778101632 | 32.78° C | 49% | 1008.1 hPa | - | - | - | - |
| 1778101030 | 32.78° C | 49% | 1008.3 hPa | - | - | - | - |
| 1778100429 | 32.78° C | 49% | 1008.4 hPa | - | - | - | - |
| 1778099829 | 32.78° C | 49% | 1008.5 hPa | - | - | - | - |
| 1778099229 | 32.78° C | 50% | 1008.5 hPa | - | - | - | - |
| 1778098628 | 32.78° C | 49% | 1008.6 hPa | - | - | - | - |
| 1778098028 | 32.22° C | 50% | 1008.7 hPa | - | - | - | - |
| 1778097542 | 32.22° C | 51% | 1008.6 hPa | - | - | - | - |
| 1778096942 | 32.22° C | 51% | 1008.6 hPa | - | - | - | - |
| 1778096342 | 32.22° C | 50% | 1008.7 hPa | - | - | - | - |
| 1778095742 | 32.78° C | 50% | 1008.8 hPa | - | - | - | - |
| 1778095141 | 32.22° C | 51% | 1008.7 hPa | - | - | - | - |
| 1778094541 | 32.22° C | 50% | 1008.9 hPa | - | - | - | - |
| 1778093940 | 32.22° C | 51% | 1008.9 hPa | - | - | - | - |
| 1778093340 | 32.22° C | 50% | 1009.1 hPa | - | - | - | - |
| 1778092740 | 32.22° C | 51% | 1009.3 hPa | - | - | - | - |
| 1778092139 | 32.22° C | 50% | 1009.4 hPa | - | - | - | - |
| 1778091539 | 32.22° C | 48% | 1009.6 hPa | - | - | - | - |
| 1778090939 | 32.22° C | 50% | 1009.8 hPa | - | - | - | - |
| 1778090339 | 31.67° C | 47% | 1009.9 hPa | - | - | - | - |
| 1778089738 | 31.67° C | 54% | 1009.9 hPa | - | - | - | - |
| 1778089138 | 31.67° C | 54% | 1010.1 hPa | - | - | - | - |
| 1778088538 | 31.67° C | 54% | 1010.3 hPa | - | - | - | - |
| 1778087937 | 31.67° C | 53% | 1010.5 hPa | - | - | - | - |
* Rain since midnight (hover to see other rain measurements)
** Current wind speed in m/s (hover to see current wind gust speed)